This is the latest recevied weather packets stored in our database for station/object KI5RAB. If no packets are shown the sender has not sent any weather packets the latest 10 day(s).
| Time | Temp. | Humidity | Pressure | Rain* | Wind** | Luminosity | Snow |
|---|---|---|---|---|---|---|---|
| 1777688846 | 12.78° C | 85% | 1019.5 hPa | 0 mm | - | 0 W/m² | - |
| 1777688542 | 12.78° C | 85% | 1019.5 hPa | 0 mm | - | 0 W/m² | - |
| 1777688239 | 13.33° C | 85% | 1019.5 hPa | 0 mm | - | 0 W/m² | - |
| 1777687937 | 13.33° C | 85% | 1019.4 hPa | 0 mm | - | 0 W/m² | - |
| 1777687634 | 13.33° C | 85% | 1019.1 hPa | 0 mm | - | 0 W/m² | - |
| 1777687331 | 13.33° C | 86% | 1019.1 hPa | 0 mm | - | 0 W/m² | - |
| 1777687029 | 13.33° C | 87% | 1018.9 hPa | 0 mm | - | 0 W/m² | - |
| 1777686725 | 13.33° C | 87% | 1018.6 hPa | 0 mm | - | 0 W/m² | - |
| 1777686423 | 13.89° C | 86% | 1018.9 hPa | 0 mm | - | 0 W/m² | - |
| 1777686119 | 13.89° C | 87% | 1018.6 hPa | 0 mm | - | 0 W/m² | - |
| 1777685815 | 13.89° C | 87% | 1018.5 hPa | 0 mm | - | 0 W/m² | - |
| 1777685510 | 13.89° C | 87% | 1018.3 hPa | 0 mm | - | 0 W/m² | - |
| 1777685208 | 14.44° C | 87% | 1018.3 hPa | 0 mm | - | 0 W/m² | - |
| 1777684906 | 14.44° C | 86% | 1018.3 hPa | 0 mm | - | 0 W/m² | - |
| 1777684602 | 14.44° C | 86% | 1018.2 hPa | 0 mm | - | 0 W/m² | - |
| 1777684298 | 14.44° C | 87% | 1018.2 hPa | 0 mm | - | 2 W/m² | - |
| 1777683996 | 14.44° C | 87% | 1017.9 hPa | 0 mm | - | 2 W/m² | - |
| 1777683692 | 14.44° C | 87% | 1017.8 hPa | 0 mm | - | 2 W/m² | - |
| 1777683390 | 14.44° C | 86% | 1017.8 hPa | 0 mm | - | 4 W/m² | - |
| 1777683088 | 14.44° C | 86% | 1017.7 hPa | 0 mm | - | 16 W/m² | - |
| 1777682783 | 14.44° C | 86% | 1017.5 hPa | 0 mm | - | 12 W/m² | - |
| 1777682480 | 15° C | 86% | 1017.3 hPa | 0 mm | - | 27 W/m² | - |
| 1777682178 | 14.44° C | 85% | 1017.4 hPa | 0 mm | - | 29 W/m² | - |
| 1777681875 | 15° C | 85% | 1017.3 hPa | 0 mm | - | 15 W/m² | - |
| 1777681571 | 15° C | 85% | 1017.2 hPa | 0 mm | - | 23 W/m² | - |
* Rain latest hour (hover to see other rain measurements)
** Current wind speed in m/s (hover to see current wind gust speed)